Weather History for KHSB - February, 2014

Change the Weather History Date:

Tuesday, February 4, 2014

  Actual Average (KMWA) Record (KMWA)
Temperature  
Mean Temperature 28 °F -  
Max Temperature 32 °F 41 °F 69 °F (2008)
Min Temperature 24 °F 20 °F -11 °F (1985)
Degree Days  
Heating Degree Days 37    
Moisture  
Dew Point 26 °F    
Average Humidity 89    
Maximum Humidity 100    
Minimum Humidity 75    
Precipitation  
Precipitation 0.00 in - - ()
Sea Level Pressure  
Sea Level Pressure 30.13 in    
Wind  
Wind Speed 7 mph (NE)    
Max Wind Speed 16 mph    
Max Gust Speed 22 mph    
Visibility 6 miles    
Events Snow    
Averages and records for this station are not official NWS values.
T = Trace of Precipitation, MM = Missing Value Source: NWS Daily Summary

Daily Weather History Graph

Daily Weather History Graph

Search for Another Location

Airport or City:

Trip Planner

Search our weather history database for the weather conditions in past years. The results will help you decide how hot, cold, wet, or windy it might be!

Date:

Astronomy

Feb. 04, 2014 Rise Set
Actual Time 6:55 AM CST 5:21 PM CST
Civil Twilight 6:28 AM CST 5:48 PM CST
Nautical Twilight 5:56 AM CST 6:19 PM CST
Astronomical Twilight 5:26 AM CST 6:50 PM CST
Moon 9:40 AM CST (2/4) 11:07 PM CST (2/4)
Length of Visible Light 11h 20m
Length of Day
10h 25m
Waxing Crescent, 29% of the Moon is Illuminated
Feb 4
Waxing Crescent
Feb 6
First Quarter
Feb 14
Full
Feb 22
Last Quarter
Mar 1
New

Hourly Weather History & Observations

Time (CST) Temp. Windchill Dew Point Humidity Pressure Visibility Wind Dir Wind Speed Gust Speed Precip Events Conditions
12:15 AM 25.0 °F 18.1 °F 21.2 °F 86% 30.31 in 10.0 mi NE 5.8 mph - N/A   Clear
12:35 AM 25.2 °F 18.3 °F 21.2 °F 85% 30.30 in 10.0 mi NE 5.8 mph - N/A   Clear
12:55 AM 25.3 °F 21.1 °F 21.2 °F 84% 30.31 in 10.0 mi ENE 3.5 mph - N/A   Clear
1:15 AM 24.8 °F 19.1 °F 21.2 °F 86% 30.31 in 10.0 mi North 4.6 mph - N/A   Clear
1:35 AM 24.8 °F 19.1 °F 21.2 °F 86% 30.34 in 10.0 mi North 4.6 mph - N/A   Clear
1:55 AM 24.8 °F 16.9 °F 21.9 °F 89% 30.30 in 10.0 mi NNE 6.9 mph - N/A   Clear
2:15 AM 25.3 °F 18.5 °F 21.7 °F 86% 30.29 in 10.0 mi NNE 5.8 mph - N/A   Clear
2:35 AM 25.3 °F 19.7 °F 21.9 °F 87% 30.29 in 10.0 mi NE 4.6 mph - N/A   Clear
2:55 AM 25.5 °F 18.7 °F 21.9 °F 86% 30.28 in 10.0 mi NE 5.8 mph - N/A   Clear
3:15 AM 25.7 °F 18.0 °F 22.3 °F 87% 30.26 in 10.0 mi NE 6.9 mph - N/A   Clear
3:35 AM 25.7 °F 21.5 °F 21.7 °F 85% 30.29 in 10.0 mi NE 3.5 mph - N/A   Clear
3:55 AM 25.7 °F 21.5 °F 22.1 °F 86% 30.30 in 10.0 mi NE 3.5 mph - N/A   Clear
4:15 AM 26.1 °F - 22.3 °F 86% 30.32 in 10.0 mi Calm Calm - N/A   Clear
4:35 AM 26.2 °F 20.7 °F 23.0 °F 88% 30.30 in 7.0 mi NE 4.6 mph - N/A   Clear
4:55 AM 26.2 °F 18.6 °F 23.0 °F 88% 30.29 in 7.0 mi NNE 6.9 mph - N/A   Clear
5:15 AM 26.4 °F 18.0 °F 23.0 °F 87% 30.27 in 7.0 mi NE 8.1 mph - N/A   Clear
5:35 AM 26.4 °F 20.9 °F 23.2 °F 88% 30.31 in 7.0 mi NNE 4.6 mph - N/A   Clear
5:55 AM 26.4 °F 19.8 °F 23.5 °F 89% 30.30 in 7.0 mi NNE 5.8 mph - N/A   Clear
6:15 AM 26.6 °F 21.2 °F 23.7 °F 89% 30.30 in 7.0 mi NNE 4.6 mph - N/A   Clear
6:35 AM 26.6 °F 20.0 °F 23.9 °F 90% 30.29 in 7.0 mi NE 5.8 mph - N/A   Clear
6:55 AM 27.1 °F 18.2 °F 24.4 °F 90% 30.27 in 5.0 mi NE 9.2 mph - N/A   Clear
7:15 AM 27.3 °F 18.4 °F 24.4 °F 89% 30.26 in 5.0 mi NE 9.2 mph - N/A   Clear
7:35 AM 27.5 °F 20.2 °F 24.6 °F 89% 30.25 in 5.0 mi NE 6.9 mph - N/A   Clear
7:55 AM 27.9 °F 20.6 °F 24.8 °F 88% 30.27 in 5.0 mi NE 6.9 mph - N/A   Clear
8:15 AM 28.4 °F 22.2 °F 25.3 °F 88% 30.27 in 5.0 mi NE 5.8 mph - N/A   Clear
8:35 AM 29.1 °F 21.3 °F 25.5 °F 86% 30.26 in 5.0 mi NE 8.1 mph - N/A   Clear
8:55 AM 29.3 °F 19.6 °F 25.5 °F 86% 30.25 in 5.0 mi ENE 11.5 mph - N/A   Clear
9:15 AM 29.8 °F 19.8 °F 25.5 °F 84% 30.22 in 7.0 mi ENE 12.7 mph 17.3 mph N/A   Clear
9:35 AM 30.7 °F 20.9 °F 25.7 °F 82% 30.21 in 7.0 mi ENE 12.7 mph 21.9 mph N/A   Clear
9:55 AM 31.1 °F 20.9 °F 25.9 °F 81% 30.22 in 7.0 mi ENE 13.8 mph - N/A   Clear
10:15 AM 31.5 °F 23.5 °F 25.5 °F 79% 30.25 in 7.0 mi East 9.2 mph 16.1 mph N/A   Clear
10:35 AM 31.5 °F 21.8 °F 25.3 °F 78% 30.24 in 10.0 mi NE 12.7 mph - N/A   Clear
10:55 AM 31.5 °F 22.9 °F 25.2 °F 78% 30.22 in 10.0 mi NE 10.4 mph - N/A   Clear
11:15 AM 31.6 °F 26.0 °F 24.8 °F 76% 30.22 in 10.0 mi NE 5.8 mph - N/A   Clear
11:35 AM 32.0 °F 26.4 °F 24.8 °F 75% 30.25 in 10.0 mi NE 5.8 mph - N/A   Clear
11:55 AM 32.0 °F 24.8 °F 25.0 °F 75% 30.22 in 10.0 mi NE 8.1 mph - N/A   Clear
12:15 PM 31.8 °F 23.3 °F 24.6 °F 75% 30.22 in 10.0 mi NE 10.4 mph - N/A   Scattered Clouds
12:35 PM 31.8 °F 23.9 °F 24.8 °F 75% 30.19 in 7.0 mi NE 9.2 mph - N/A   Mostly Cloudy
12:55 PM 31.5 °F 20.9 °F 24.6 °F 76% 30.13 in 5.0 mi NE 15.0 mph - N/A Snow Light Snow
1:15 PM 30.7 °F 20.4 °F 25.3 °F 80% 30.07 in 5.0 mi NE 13.8 mph 19.6 mph N/A Snow Light Snow
1:35 PM 30.2 °F 19.8 °F 25.7 °F 83% 30.07 in 4.0 mi ENE 13.8 mph - N/A Snow Light Snow
1:55 PM 30.2 °F 19.8 °F 26.6 °F 86% 30.03 in 2.5 mi ENE 13.8 mph 21.9 mph N/A Snow Light Snow
2:15 PM 30.2 °F 20.2 °F 27.3 °F 89% 30.04 in 4.0 mi NE 12.7 mph 19.6 mph N/A   Overcast
2:35 PM 30.0 °F 20.5 °F 27.7 °F 91% 30.02 in 3.0 mi NE 11.5 mph - N/A Snow Light Snow
2:55 PM 30.2 °F 21.9 °F 28.6 °F 94% 30.02 in 2.0 mi NE 9.2 mph 18.4 mph N/A Snow Light Snow
3:15 PM 29.8 °F 20.3 °F 28.4 °F 94% 30.03 in 2.5 mi NE 11.5 mph 17.3 mph N/A Snow Light Snow
3:35 PM 30.0 °F 20.0 °F 28.8 °F 95% 30.01 in 2.5 mi NE 12.7 mph - N/A Snow Light Snow
3:55 PM 29.8 °F 20.3 °F 28.8 °F 96% 29.99 in 4.0 mi NE 11.5 mph - N/A Snow Light Snow
4:15 PM 30.2 °F 20.8 °F 29.3 °F 96% 29.98 in 2.0 mi NE 11.5 mph - N/A Snow Light Snow
4:35 PM 30.2 °F 20.2 °F 29.3 °F 96% 29.98 in 2.5 mi NE 12.7 mph 16.1 mph N/A Snow Light Snow
4:55 PM 29.8 °F 20.3 °F 28.9 °F 96% 29.98 in 3.0 mi NE 11.5 mph 18.4 mph N/A Snow Light Snow
5:35 PM 29.3 °F 20.2 °F 28.4 °F 96% 29.96 in 2.0 mi NE 10.4 mph 16.1 mph N/A Snow Light Snow
6:15 PM 29.1 °F 21.3 °F 28.4 °F 97% 29.95 in 4.0 mi ENE 8.1 mph - N/A Snow Light Snow
6:35 PM 29.7 °F 20.7 °F 29.1 °F 98% 29.97 in 5.0 mi ENE 10.4 mph - N/A   Overcast
6:55 PM 29.8 °F 21.5 °F 29.1 °F 97% 29.94 in 5.0 mi ENE 9.2 mph - N/A   Overcast
7:15 PM 30.0 °F 18.7 °F 29.3 °F 97% 29.90 in 5.0 mi East 16.1 mph 21.9 mph N/A   Overcast
7:35 PM 30.2 °F 22.6 °F 29.3 °F 96% 29.94 in 7.0 mi ENE 8.1 mph - N/A   Overcast
7:55 PM 30.2 °F 25.4 °F 29.3 °F 96% 29.94 in 7.0 mi NNE 4.6 mph - N/A   Overcast
8:15 PM 30.6 °F 23.8 °F 29.3 °F 95% 29.91 in 10.0 mi NE 6.9 mph - N/A   Overcast
8:35 PM 30.4 °F 22.9 °F 29.3 °F 96% 29.90 in 10.0 mi NNE 8.1 mph - N/A   Overcast
8:55 PM 30.2 °F 25.4 °F 29.3 °F 96% 29.91 in 7.0 mi NNE 4.6 mph - N/A   Overcast
9:15 PM 30.2 °F 23.4 °F 29.7 °F 98% 29.88 in 7.0 mi NNE 6.9 mph - N/A   Overcast
9:35 PM 30.2 °F 24.3 °F 29.7 °F 98% 29.88 in 5.0 mi NNE 5.8 mph - N/A   Overcast
9:55 PM 30.6 °F 25.8 °F 30.2 °F 99% 29.88 in 3.0 mi North 4.6 mph - N/A   Overcast
10:15 PM 30.2 °F 25.4 °F 30.2 °F 100% 29.87 in 2.5 mi NNE 4.6 mph - N/A   Overcast
10:35 PM 30.6 °F 25.8 °F 30.6 °F 100% 29.88 in 2.5 mi North 4.6 mph - N/A   Overcast
10:55 PM 30.7 °F 27.3 °F 30.7 °F 100% 29.89 in 1.8 mi North 3.5 mph - N/A   Overcast
11:15 PM 30.7 °F 27.3 °F 30.7 °F 100% 29.88 in 2.0 mi NNW 3.5 mph - N/A   Overcast
11:35 PM 30.9 °F 25.2 °F 30.9 °F 100% 29.89 in 1.8 mi NW 5.8 mph - N/A   Overcast
11:55 PM 30.2 °F 21.9 °F 30.2 °F 100% 29.89 in 1.8 mi WNW 9.2 mph - N/A   Overcast